Change the Weather History Date:

Monday, January 28, 2013

  Actual Average Record
Temperature  
Mean Temperature 58 °F 32 °F  
Max Temperature 75 °F 42 °F 76 °F (2015)
Min Temperature 41 °F 21 °F -5 °F (1997)
Degree Days  
Heating Degree Days 7 33  
Month to date heating degree days 858 951  
Since 1 July heating degree days 2614 2884  
Cooling Degree Days 0 0  
Month to date cooling degree days 0 0  
Year to date cooling degree days 0 0  
Growing Degree Days 10 (Base 50)    
Moisture  
Dew Point 52 °F    
Average Humidity 69    
Maximum Humidity 100    
Minimum Humidity 38    
Precipitation  
Precipitation 0.00 in 0.03 in 0.90 in (2001)
Month to date precipitation 0.32 0.52  
Year to date precipitation 0.32 0.52  
Sea Level Pressure  
Sea Level Pressure 29.77 in    
Wind  
Wind Speed 16 mph (South)    
Max Wind Speed 35 mph    
Max Gust Speed 40 mph    
Visibility 5 miles    
Events Fog    
T = Trace of Precipitation, MM = Missing Value Source: NWS Daily Summary

Daily Weather History Graph

Daily Weather History Graph

Search for Another Location

Airport or City:

Trip Planner

Search our weather history database for the weather conditions in past years. The results will help you decide how hot, cold, wet, or windy it might be!

Date:

Astronomy

Jan. 28, 2013 Rise Set
Actual Time 7:32 AM CST 5:43 PM CST
Civil Twilight 7:04 AM CST 6:11 PM CST
Nautical Twilight 6:32 AM CST 6:43 PM CST
Astronomical Twilight 6:01 AM CST 7:14 PM CST
Moon 7:36 PM CST (1/28) 8:01 AM CST (1/28)
Length of Visible Light 11h 06m
Length of Day
10h 10m
Full, 98% of the Moon is Illuminated
Jan 28
Full
Feb 3
Last Quarter
Feb 10
New
Feb 17
First Quarter
Feb 25
Full

Hourly Weather History & Observations

Time (CST) Temp. Dew Point Humidity Pressure Visibility Wind Dir Wind Speed Gust Speed Precip Events Conditions
12:53 AM 57.0 °F 54.0 °F 89% 29.82 in 7.0 mi SSW 5.8 mph - N/A   Overcast
1:53 AM 53.1 °F 51.1 °F 93% 29.81 in 5.0 mi South 5.8 mph - N/A   Mostly Cloudy
2:35 AM 51.8 °F 51.8 °F 100% 29.81 in 2.5 mi South 4.6 mph - N/A   Scattered Clouds
2:44 AM 53.6 °F 51.8 °F 94% 29.81 in 1.2 mi SSE 5.8 mph - N/A   Partly Cloudy
2:47 AM 51.8 °F 51.8 °F 100% 29.81 in 0.8 mi South 6.9 mph - N/A   Mist
2:53 AM 50.0 °F 50.0 °F 100% 29.81 in 0.5 mi South 5.8 mph - N/A Fog Fog
3:03 AM 50.0 °F 48.2 °F 94% 29.81 in 0.2 mi South 6.9 mph - N/A Fog Fog
3:24 AM 48.2 °F 48.2 °F 100% 29.81 in 0.2 mi South 6.9 mph - N/A Fog Fog
3:50 AM 48.2 °F 46.4 °F 93% 29.81 in 0.2 mi Calm Calm - N/A Fog Fog
3:53 AM 46.9 °F 46.9 °F 100% 29.81 in 0.2 mi Calm Calm - N/A Fog Fog
4:53 AM 50.0 °F 50.0 °F 100% 29.81 in 0.2 mi Calm Calm - N/A Fog Fog
5:14 AM 51.8 °F 51.8 °F 100% 29.79 in 1.0 mi South 5.8 mph - N/A   Overcast
5:32 AM 51.8 °F 50.0 °F 94% 29.80 in 0.8 mi South 8.1 mph - N/A   Overcast
6:09 AM 50.0 °F 48.2 °F 94% 29.79 in 1.0 mi South 6.9 mph - N/A   Mist
6:11 AM 50.0 °F 48.2 °F 94% 29.79 in 1.5 mi South 8.1 mph - N/A   Partly Cloudy
6:15 AM 50.0 °F 48.2 °F 94% 29.79 in 3.0 mi South 8.1 mph - N/A   Partly Cloudy
6:36 AM 50.0 °F 48.2 °F 94% 29.80 in 1.5 mi Calm Calm - N/A   Clear
6:38 AM 48.2 °F 48.2 °F 100% 29.81 in 0.8 mi Calm Calm - N/A   Mist
6:49 AM 50.0 °F 48.2 °F 94% 29.81 in 1.5 mi SSW 5.8 mph - N/A   Partly Cloudy
6:53 AM 48.9 °F 48.0 °F 97% 29.81 in 2.0 mi South 6.9 mph - N/A   Partly Cloudy
7:10 AM 48.2 °F 48.2 °F 100% 29.81 in 3.0 mi South 6.9 mph - N/A   Clear
7:21 AM 48.2 °F 48.2 °F 100% 29.81 in 1.8 mi South 5.8 mph - N/A   Clear
7:24 AM 48.2 °F 48.2 °F 100% 29.81 in 1.0 mi South 5.8 mph - N/A   Clear
7:27 AM 48.2 °F 48.2 °F 100% 29.81 in 0.8 mi South 5.8 mph - N/A   Mist
7:43 AM 48.2 °F 48.2 °F 100% 29.82 in 0.2 mi South 5.8 mph - N/A Fog Fog
7:53 AM 48.9 °F 48.9 °F 100% 29.82 in 0.2 mi South 5.8 mph - N/A Fog Fog
8:11 AM 50.0 °F 50.0 °F 100% 29.82 in 1.2 mi South 6.9 mph - N/A   Clear
8:14 AM 51.8 °F 50.0 °F 94% 29.82 in 2.0 mi South 5.8 mph - N/A   Clear
8:25 AM 51.8 °F 51.8 °F 100% 29.82 in 4.0 mi South 4.6 mph - N/A   Clear
8:53 AM 54.0 °F 53.1 °F 97% 29.82 in 6.0 mi Calm Calm - N/A   Clear
9:53 AM 61.0 °F 53.1 °F 75% 29.81 in 10.0 mi SSW 19.6 mph 31.1 mph N/A   Unknown
10:53 AM 66.9 °F 48.9 °F 52% 29.81 in - North - - N/A   Unknown
11:53 AM 70.0 °F 48.9 °F 47% 29.79 in 10.0 mi South 25.3 mph 31.1 mph N/A   Clear
12:53 PM 73.0 °F 51.1 °F 46% 29.75 in 10.0 mi SSW 31.1 mph 36.8 mph N/A   Clear
1:53 PM 75.0 °F 48.9 °F 40% 29.71 in 10.0 mi South 27.6 mph 35.7 mph N/A   Clear
2:53 PM 73.9 °F 54.0 °F 50% 29.71 in 10.0 mi South 27.6 mph 35.7 mph N/A   Partly Cloudy
3:53 PM 72.0 °F 55.0 °F 55% 29.69 in 10.0 mi South 25.3 mph 31.1 mph N/A   Mostly Cloudy
4:53 PM 72.0 °F 53.1 °F 51% 29.66 in 10.0 mi South 23.0 mph 34.5 mph N/A   Scattered Clouds
5:53 PM 69.1 °F 50.0 °F 51% 29.66 in 10.0 mi South 19.6 mph 29.9 mph N/A   Partly Cloudy
6:53 PM 66.9 °F 57.0 °F 70% 29.67 in 10.0 mi South 16.1 mph - N/A   Mostly Cloudy
7:53 PM 66.9 °F 53.1 °F 61% 29.68 in 10.0 mi South 17.3 mph - N/A   Overcast
8:53 PM 66.0 °F 57.0 °F 73% 29.67 in 10.0 mi South 20.7 mph - N/A   Clear
9:45 PM 66.2 °F 59.0 °F 78% 29.67 in 10.0 mi South 23.0 mph 34.5 mph N/A   Mostly Cloudy
9:53 PM 66.0 °F 59.0 °F 78% 29.65 in 10.0 mi South 24.2 mph 34.5 mph N/A   Mostly Cloudy
10:51 PM 66.2 °F 60.8 °F 83% 29.65 in 9.0 mi South 27.6 mph 38.0 mph N/A   Scattered Clouds
10:53 PM 66.0 °F 60.1 °F 81% 29.64 in 9.0 mi South 24.2 mph 38.0 mph N/A   Scattered Clouds
11:50 PM 66.2 °F 60.8 °F 83% 29.64 in 9.0 mi South 23.0 mph 33.4 mph N/A   Mostly Cloudy
11:53 PM 66.0 °F 60.1 °F 81% 29.62 in 9.0 mi South 23.0 mph 33.4 mph N/A   Mostly Cloudy